User: anonymous   Login
Location: Newark
(53.5596°N, 1.2370°W)
Time: 00:57:28
(UTC+00:00)
Language:

XW-2A - Orbit

View from above orbital plane
View from above orbital plane
View from above satellite
View from above satellite

Ground track
Ground track

The orbit data is extracted from the following two-line orbital elements,

1 40903U 15049E   19339.72942708  .00001377  00000-0  33848-4 0  9997
2 40903  97.3167  23.2969 0011720 246.9536 232.6467 15.42389248236454
Epoch (UTC): 05 December 2019 17:30:22
Eccentricity: 0.0011720
inclination: 97.3167°
perigee height: 431 km
apogee height: 447 km
right ascension of ascending node: 23.2969°
argument of perigee: 246.9536°
revolutions per day: 15.42389248
mean anomaly at epoch: 232.6467°
orbit number at epoch: 23645

The dashed part of the orbit path shows where the satellite is in the earth's shadow,  

DLR